OPS 4682 DEB, 15530

Orbit data source: Space-Track

OPS 4682 DEB, 15530 is space debris in LEO originally from a launch on Sat, 03 Apr 1965 UTC launched from the Air Force Western Test Range (AFWTR). Debris objects in space refer to the collection of defunct objects orbiting the Earth. Examples of debris include non-operational satellites, rocket bodies, and fragments generated from explosions, collisions, or faulty payload assembly.

Loading next visibility...
Identifier
15530, 1965-027T
Orbit
LEO
Country
Flag of USUS
Related business
Manufacturer
Unknown
Mission
Spacecraft
Bus & Motor
Unknown
Mass
Unknown
Launch date (UTC)
1965-04-03 (61 years ago)
Launch vehicle
Unknown
Launch site
Air Force Western Test Range (AFWTR)
Object type
Payload
Rocket body
Debris
Shape & HBR
Unknown shape, 0.1 m
Radar Cross Section
Small (<0.1 m²)

Expand to show TLE details & history
Last TLE update: 2 days ago

TLE from 2 days ago
0 OPS 4682 DEB
1 15530U 65027T   26235.92573554  .00000814  00000-0  27259-2 0  9992
2 15530  90.2871  34.3892 0031966 205.7900 307.9097 12.98731068 66440
Epoch: 2026-08-23T22:13Z
TLE epoch observation values (Epoch: 2026-08-23T22:13:03.550Z)
Latitude
26.62212°
Longitude
-90.9472°
Altitude
1,255.334 km
Speed
7.237 km/s
True Right ascension
14h 18m 07s
True Declination
26° 29' 37"
Sunlit
Object was in daylight at epoch
Visualization orbit readout
Latitude
Unknown
Longitude
Unknown
Altitude
Unknown
Speed
Unknown
Apparent Right ascension
Unknown
Apparent Declination
Unknown
Sunlit
N/A
Visualization observer readout
Local Sidereal Time
20:47:17
Azimuth
Unknown
Elevation
Unknown
Doppler factor
Unknown
Orbital elements
Apogee altitude
1,288.621 km
Perigee altitude
1,239.762 km
Semi-major axis
7,642.328 km
Eccentricity
0.0032
Inclination
90.2871°
RAAN
34.3892°
Arg. of periapsis
205.79°
True anomaly
307.61998°
Mean anomaly
307.9097°
Eccentric anomaly
307.76491°
Mean motion
3.24866 °/min
Orbital period
110.81 mins
BSTAR
0.0027259
Loading maneuver chart data...
Computing Atmospheric mass density...
Loading historical data...
Loading historical data...
Loading historical data...
Loading historical data...
Loading historical data...
Loading historical data...
Loading historical data...

Documentation

Showing up to 5 results
|